Time,TemperatureF,DewpointF,PressureIn,WindDirection,WindDirectionDegrees,WindSpeedMPH,WindSpeedGustMPH,Humidity,HourlyPrecipIn,Conditions,Clouds,dailyrainin,SolarRadiationWatts/m^2,SoftwareType,DateUTC
2013-09-15 00:04:00,59.3,52.8,29.98,SSE,168,0.0,0.0,79,0.00,OVC,,0.00,0.0,WeatherDisplay:10.37,2013-09-15 05:04:00,
2013-09-15 00:09:00,59.3,52.8,29.98,SSE,168,0.0,0.0,79,0.00,OVC,,0.00,0.0,WeatherDisplay:10.37,2013-09-15 05:09:00,
2013-09-15 00:14:00,59.2,52.7,29.98,SSE,168,0.0,0.0,79,0.00,OVC,,0.00,0.0,WeatherDisplay:10.37,2013-09-15 05:14:00,
2013-09-15 00:19:00,59.0,51.4,29.98,SSE,168,0.0,0.0,76,0.00,OVC,,0.00,0.0,WeatherDisplay:10.37,2013-09-15 05:19:00,
2013-09-15 00:24:00,59.2,51.6,29.98,SSE,168,0.0,0.0,76,0.00,OVC,,0.00,0.0,WeatherDisplay:10.37,2013-09-15 05:24:00,
2013-09-15 00:29:00,59.0,52.8,29.98,SSE,168,0.0,0.0,80,0.01,RA,,0.01,0.0,WeatherDisplay:10.37,2013-09-15 05:29:00,
2013-09-15 00:34:00,58.7,53.5,29.98,SSE,168,0.0,0.0,83,0.02,RA,,0.02,0.0,WeatherDisplay:10.37,2013-09-15 05:34:00,
2013-09-15 00:39:00,58.3,53.5,29.98,SSE,168,0.0,0.0,84,0.02,RA,,0.02,0.0,WeatherDisplay:10.37,2013-09-15 05:39:00,
2013-09-15 00:44:00,58.0,53.5,29.99,SSE,168,0.0,0.0,85,0.05,-RA,,0.05,0.0,WeatherDisplay:10.37,2013-09-15 05:44:00,
2013-09-15 00:49:00,57.6,53.4,29.99,NW,323,0.0,1.2,86,0.05,-RA,,0.05,0.0,WeatherDisplay:10.37,2013-09-15 05:49:00,
2013-09-15 00:54:00,57.3,53.5,29.99,NW,322,0.0,0.0,87,0.06,-RA,,0.06,0.0,WeatherDisplay:10.37,2013-09-15 05:54:00,
2013-09-15 00:59:00,56.9,53.4,30.00,NW,322,0.0,0.0,88,0.06,-RA,,0.06,0.0,WeatherDisplay:10.37,2013-09-15 05:59:00,
2013-09-15 01:04:00,56.7,53.5,30.00,NW,321,0.0,0.0,89,0.07,-RA,,0.07,0.0,WeatherDisplay:10.37,2013-09-15 06:04:00,
2013-09-15 01:09:00,56.6,53.4,30.00,NW,317,0.0,0.0,89,0.08,-RA,,0.08,0.0,WeatherDisplay:10.37,2013-09-15 06:09:00,
2013-09-15 01:14:00,56.5,53.6,30.00,NW,322,0.0,1.1,90,0.09,RA,,0.09,0.0,WeatherDisplay:10.37,2013-09-15 06:14:00,
2013-09-15 01:19:00,56.3,53.4,30.00,NNW,346,0.3,2.3,90,0.10,RA,,0.12,0.0,WeatherDisplay:10.37,2013-09-15 06:19:00,
2013-09-15 01:24:00,56.0,53.4,30.00,NNW,346,0.0,0.0,91,0.13,RA,,0.13,0.0,WeatherDisplay:10.37,2013-09-15 06:24:00,
2013-09-15 01:29:00,55.9,53.3,30.02,NNW,346,0.0,0.0,91,0.14,RA,,0.15,0.0,WeatherDisplay:10.37,2013-09-15 06:29:00,
2013-09-15 01:34:00,55.9,53.3,30.02,NNW,346,0.1,1.1,91,0.15,RA,,0.17,0.0,WeatherDisplay:10.37,2013-09-15 06:34:00,
2013-09-15 01:39:00,55.9,53.6,30.02,NNW,346,0.0,0.0,92,0.17,RA,,0.20,0.0,WeatherDisplay:10.37,2013-09-15 06:39:00,
2013-09-15 01:44:00,55.7,53.4,30.01,NNW,346,0.0,0.0,92,0.17,-RA,,0.22,0.0,WeatherDisplay:10.37,2013-09-15 06:44:00,
2013-09-15 01:49:00,55.6,53.3,30.01,NNW,346,0.0,0.0,92,0.19,-RA,,0.23,0.0,WeatherDisplay:10.37,2013-09-15 06:49:00,
2013-09-15 01:54:00,55.6,53.6,30.01,NNW,346,0.0,0.0,93,0.17,-RA,,0.24,0.0,WeatherDisplay:10.37,2013-09-15 06:54:00,
2013-09-15 01:59:00,55.6,53.6,30.01,NNW,346,0.0,0.0,93,0.20,-RA,,0.26,0.0,WeatherDisplay:10.37,2013-09-15 06:59:00,
2013-09-15 02:04:00,55.6,53.6,30.01,NNW,346,0.0,0.0,93,0.19,-RA,,0.26,0.0,WeatherDisplay:10.37,2013-09-15 07:04:00,
2013-09-15 02:09:00,55.4,53.4,30.01,NNW,346,0.0,0.0,93,0.19,-RA,,0.27,0.0,WeatherDisplay:10.37,2013-09-15 07:09:00,
2013-09-15 02:14:00,55.3,53.3,30.01,NNW,346,0.0,0.0,93,0.19,-RA,,0.28,0.0,WeatherDisplay:10.37,2013-09-15 07:14:00,
2013-09-15 02:19:00,55.1,53.1,30.00,NNW,346,0.0,0.0,93,0.19,-RA,,0.31,0.0,WeatherDisplay:10.37,2013-09-15 07:19:00,
2013-09-15 02:24:00,55.1,53.1,30.00,NNW,346,0.0,0.0,93,0.20,RA,,0.34,0.0,WeatherDisplay:10.37,2013-09-15 07:24:00,
2013-09-15 02:29:00,55.1,53.4,30.00,NNW,346,0.0,0.0,94,0.20,RA,,0.35,0.0,WeatherDisplay:10.37,2013-09-15 07:29:00,
2013-09-15 02:34:00,55.1,53.4,29.99,NNW,346,0.0,0.0,94,0.21,RA,,0.37,0.0,WeatherDisplay:10.37,2013-09-15 07:34:00,
2013-09-15 02:39:00,55.1,53.4,29.99,WNW,283,0.0,0.0,94,0.19,RA,,0.38,0.0,WeatherDisplay:10.37,2013-09-15 07:39:00,
2013-09-15 02:44:00,55.0,53.3,29.99,South,189,0.0,4.6,94,0.19,RA,,0.39,0.0,WeatherDisplay:10.37,2013-09-15 07:44:00,
2013-09-15 02:49:00,55.1,53.7,29.99,South,189,0.0,0.0,95,0.17,RA,,0.41,0.0,WeatherDisplay:10.37,2013-09-15 07:49:00,
2013-09-15 02:54:00,55.1,53.7,29.99,SSW,192,0.0,0.0,95,0.17,RA,,0.42,0.0,WeatherDisplay:10.37,2013-09-15 07:54:00,
2013-09-15 02:59:00,55.1,53.7,29.99,SSW,194,0.0,1.2,95,0.16,RA,,0.42,0.0,WeatherDisplay:10.37,2013-09-15 07:59:00,
2013-09-15 03:04:00,55.1,53.7,29.99,South,190,0.0,0.0,95,0.16,-DZ,,0.42,0.0,WeatherDisplay:10.37,2013-09-15 08:04:00,
2013-09-15 03:09:00,55.3,53.9,29.99,South,190,0.0,0.0,95,0.15,-DZ,,0.42,0.0,WeatherDisplay:10.37,2013-09-15 08:09:00,
2013-09-15 03:14:00,55.1,53.7,29.99,South,190,0.0,0.0,95,0.15,-DZ,,0.43,0.0,WeatherDisplay:10.37,2013-09-15 08:14:00,
2013-09-15 03:19:00,55.1,53.7,29.99,South,190,0.0,0.0,95,0.13,-DZ,,0.43,0.0,WeatherDisplay:10.37,2013-09-15 08:19:00,
2013-09-15 03:24:00,55.1,53.7,29.99,South,190,0.0,0.0,95,0.09,OVC,,0.43,0.0,WeatherDisplay:10.37,2013-09-15 08:24:00,
2013-09-15 03:29:00,55.1,53.7,29.99,South,190,0.0,0.0,95,0.08,OVC,,0.43,0.0,WeatherDisplay:10.37,2013-09-15 08:29:00,
2013-09-15 03:34:00,55.0,53.6,29.98,South,190,0.0,0.0,95,0.06,OVC,,0.43,0.0,WeatherDisplay:10.37,2013-09-15 08:34:00,
2013-09-15 03:39:00,55.0,53.6,29.98,South,190,0.0,0.0,95,0.05,OVC,,0.43,0.0,WeatherDisplay:10.37,2013-09-15 08:39:00,
2013-09-15 03:44:00,54.8,53.4,29.98,South,190,0.0,0.0,95,0.03,-DZ,,0.43,0.0,WeatherDisplay:10.37,2013-09-15 08:44:00,
2013-09-15 03:49:00,54.8,53.4,29.97,South,190,0.0,0.0,95,0.02,-DZ,,0.43,0.0,WeatherDisplay:10.37,2013-09-15 08:49:00,
2013-09-15 03:54:00,54.8,53.7,29.97,South,190,0.0,0.0,96,0.02,-DZ,,0.44,0.0,WeatherDisplay:10.37,2013-09-15 08:54:00,
2013-09-15 03:59:00,54.8,53.7,29.97,South,190,0.0,0.0,96,0.02,-DZ,,0.44,0.0,WeatherDisplay:10.37,2013-09-15 08:59:00,
2013-09-15 04:04:00,54.8,53.7,29.96,South,190,0.0,0.0,96,0.02,OVC,,0.44,0.0,WeatherDisplay:10.37,2013-09-15 09:04:00,
2013-09-15 04:09:00,54.8,53.7,29.96,South,190,0.0,0.0,96,0.02,OVC,,0.44,0.0,WeatherDisplay:10.37,2013-09-15 09:09:00,
2013-09-15 04:14:00,54.8,53.7,29.96,South,190,0.0,0.0,96,0.01,OVC,,0.44,0.0,WeatherDisplay:10.37,2013-09-15 09:14:00,
2013-09-15 04:19:00,54.8,53.7,29.96,South,190,0.0,0.0,96,0.01,OVC,,0.44,0.0,WeatherDisplay:10.37,2013-09-15 09:19:00,
2013-09-15 04:24:00,54.8,53.7,29.96,South,190,0.0,0.0,96,0.01,OVC,,0.44,0.0,WeatherDisplay:10.37,2013-09-15 09:24:00,
2013-09-15 04:29:00,54.8,53.7,29.96,South,190,0.0,0.0,96,0.01,OVC,,0.44,0.0,WeatherDisplay:10.37,2013-09-15 09:29:00,
2013-09-15 04:34:00,54.8,53.7,29.95,South,190,0.0,0.0,96,0.01,OVC,,0.44,0.0,WeatherDisplay:10.37,2013-09-15 09:34:00,
2013-09-15 04:39:00,54.8,53.7,29.95,South,190,0.0,0.0,96,0.01,OVC,,0.44,0.0,WeatherDisplay:10.37,2013-09-15 09:39:00,
2013-09-15 04:44:00,54.8,53.7,29.95,South,190,0.1,3.3,96,0.01,OVC,,0.44,0.0,WeatherDisplay:10.37,2013-09-15 09:44:00,
2013-09-15 04:49:00,54.8,53.7,29.95,South,190,0.0,1.2,96,0.01,OVC,,0.44,0.0,WeatherDisplay:10.37,2013-09-15 09:49:00,
2013-09-15 04:54:00,54.8,53.7,29.95,South,190,0.1,1.2,96,0.00,OVC,,0.44,0.0,WeatherDisplay:10.37,2013-09-15 09:54:00,
2013-09-15 04:59:00,54.8,53.7,29.95,South,190,0.0,1.2,96,0.00,OVC,,0.44,0.0,WeatherDisplay:10.37,2013-09-15 09:59:00,
2013-09-15 05:04:00,54.8,53.7,29.93,South,189,0.0,0.0,96,0.00,OVC,,0.44,0.0,WeatherDisplay:10.37,2013-09-15 10:04:00,
2013-09-15 05:09:00,54.7,53.6,29.93,South,190,0.0,1.2,96,0.00,OVC,,0.44,0.0,WeatherDisplay:10.37,2013-09-15 10:09:00,
2013-09-15 05:14:00,54.7,53.6,29.93,South,180,0.0,0.0,96,0.00,OVC,,0.44,0.0,WeatherDisplay:10.37,2013-09-15 10:14:00,
2013-09-15 05:19:00,54.8,53.7,29.93,South,180,0.0,0.0,96,0.00,OVC,,0.44,0.0,WeatherDisplay:10.37,2013-09-15 10:19:00,
2013-09-15 05:24:00,54.7,53.6,29.93,South,180,0.0,1.2,96,0.00,OVC,,0.44,0.0,WeatherDisplay:10.37,2013-09-15 10:24:00,
2013-09-15 05:29:00,54.7,53.6,29.92,South,180,0.0,0.0,96,0.00,OVC,,0.44,0.0,WeatherDisplay:10.37,2013-09-15 10:29:00,
2013-09-15 05:34:00,54.8,53.7,29.92,South,172,0.1,2.2,96,0.00,OVC,,0.44,0.0,WeatherDisplay:10.37,2013-09-15 10:34:00,
2013-09-15 05:39:00,54.8,53.7,29.92,SSW,198,0.8,4.6,96,0.00,OVC,,0.44,0.0,WeatherDisplay:10.37,2013-09-15 10:39:00,
2013-09-15 05:44:00,54.8,53.7,29.92,South,190,0.0,0.0,96,0.00,OVC,,0.44,0.0,WeatherDisplay:10.37,2013-09-15 10:44:00,
2013-09-15 05:49:00,54.8,53.7,29.93,South,190,0.0,0.0,96,0.00,OVC,,0.44,0.0,WeatherDisplay:10.37,2013-09-15 10:49:00,
2013-09-15 05:54:00,54.8,53.7,29.93,South,190,0.0,0.0,96,0.00,OVC,,0.44,0.0,WeatherDisplay:10.37,2013-09-15 10:54:00,
2013-09-15 05:59:00,54.8,53.7,29.93,SSE,155,0.1,1.1,96,0.00,OVC,,0.44,0.0,WeatherDisplay:10.37,2013-09-15 10:59:00,
2013-09-15 06:04:00,54.8,53.7,29.93,SSE,150,0.0,1.2,96,0.00,-RA,,0.44,0.0,WeatherDisplay:10.37,2013-09-15 11:04:00,
2013-09-15 06:09:00,54.8,53.7,29.93,South,174,0.0,0.0,96,0.00,-RA,,0.44,0.0,WeatherDisplay:10.37,2013-09-15 11:09:00,
2013-09-15 06:14:00,54.8,53.7,29.93,South,178,0.0,3.5,96,0.00,-RA,,0.44,0.0,WeatherDisplay:10.37,2013-09-15 11:14:00,
2013-09-15 06:19:00,54.7,53.6,29.92,South,175,0.0,0.0,96,0.00,-RA,,0.44,0.0,WeatherDisplay:10.37,2013-09-15 11:19:00,
2013-09-15 06:24:00,54.7,53.6,29.92,South,175,0.1,1.1,96,0.00,OVC,,0.44,0.0,WeatherDisplay:10.37,2013-09-15 11:24:00,
2013-09-15 06:29:00,54.8,53.7,29.92,South,175,0.0,0.0,96,0.00,OVC,,0.44,0.0,WeatherDisplay:10.37,2013-09-15 11:29:00,
2013-09-15 06:34:00,54.8,53.7,29.93,South,175,0.0,0.0,96,0.00,OVC,,0.44,0.0,WeatherDisplay:10.37,2013-09-15 11:34:00,
2013-09-15 06:39:00,54.7,53.6,29.93,South,175,0.0,0.0,96,0.00,OVC,,0.44,0.0,WeatherDisplay:10.37,2013-09-15 11:39:00,
2013-09-15 06:44:00,54.7,53.6,29.93,South,175,0.0,0.0,96,0.00,OVC,,0.44,0.0,WeatherDisplay:10.37,2013-09-15 11:44:00,
2013-09-15 06:49:00,54.7,53.6,29.93,South,175,0.0,0.0,96,0.00,OVC,,0.44,0.0,WeatherDisplay:10.37,2013-09-15 11:49:00,
2013-09-15 06:54:00,54.7,53.6,29.93,South,175,0.0,1.2,96,0.00,OVC,,0.44,0.0,WeatherDisplay:10.37,2013-09-15 11:54:00,
2013-09-15 06:59:00,54.7,53.6,29.93,South,175,0.1,1.1,96,0.00,OVC,,0.44,0.0,WeatherDisplay:10.37,2013-09-15 11:59:00,
2013-09-15 07:04:00,54.7,53.6,29.93,South,175,0.0,0.0,96,0.00,OVC,,0.44,0.0,WeatherDisplay:10.37,2013-09-15 12:04:00,
2013-09-15 07:09:00,54.7,53.6,29.93,South,175,0.0,0.0,96,0.00,OVC,,0.44,0.0,WeatherDisplay:10.37,2013-09-15 12:09:00,
2013-09-15 07:14:00,54.7,53.6,29.93,South,175,0.0,0.0,96,0.00,OVC,,0.44,0.0,WeatherDisplay:10.37,2013-09-15 12:14:00,
2013-09-15 07:19:00,54.7,53.6,29.93,South,175,0.0,0.0,96,0.01,RA,,0.45,0.0,WeatherDisplay:10.37,2013-09-15 12:19:00,
2013-09-15 07:24:00,54.7,53.6,29.93,South,175,0.1,1.2,96,0.01, +RA,,0.45,0.0,WeatherDisplay:10.37,2013-09-15 12:24:00,
2013-09-15 07:29:00,54.7,53.6,29.93,South,175,0.0,0.0,96,0.02, +RA,,0.46,5.0,WeatherDisplay:10.37,2013-09-15 12:29:00,
2013-09-15 07:34:00,54.7,53.6,29.94,SSE,153,0.0,0.0,96,0.02, +RA,,0.48,7.0,WeatherDisplay:10.37,2013-09-15 12:34:00,
2013-09-15 07:39:00,54.7,53.6,29.94,SSE,153,0.0,0.0,96,0.03, +RA,,0.48,5.0,WeatherDisplay:10.37,2013-09-15 12:39:00,
2013-09-15 07:44:00,54.5,53.4,29.94,SSE,151,0.0,0.0,96,0.05,RA,,0.49,0.0,WeatherDisplay:10.37,2013-09-15 12:44:00,
2013-09-15 07:49:00,54.5,53.4,29.94,SSE,151,0.0,0.0,96,0.05,RA,,0.50,0.0,WeatherDisplay:10.37,2013-09-15 12:49:00,
2013-09-15 07:54:00,54.5,53.4,29.94,SSE,153,0.0,0.0,96,0.06,RA,,0.50,0.0,WeatherDisplay:10.37,2013-09-15 12:54:00,
2013-09-15 07:59:00,54.7,53.6,29.94,SSE,155,0.0,1.2,96,0.07,RA,,0.51,7.0,WeatherDisplay:10.37,2013-09-15 12:59:00,
2013-09-15 08:04:00,54.7,53.6,29.94,South,178,0.0,0.0,96,0.09,-RA,,0.53,11.0,WeatherDisplay:10.37,2013-09-15 13:04:00,
2013-09-15 08:09:00,54.7,53.6,29.94,South,178,0.0,0.0,96,0.12,-RA,,0.56,14.0,WeatherDisplay:10.37,2013-09-15 13:09:00,
2013-09-15 08:14:00,54.7,53.6,29.94,South,178,0.0,0.0,96,0.12,-RA,,0.57,11.0,WeatherDisplay:10.37,2013-09-15 13:14:00,
2013-09-15 08:19:00,54.8,53.7,29.94,South,178,0.0,1.1,96,0.13,-RA,,0.59,11.0,WeatherDisplay:10.37,2013-09-15 13:19:00,
2013-09-15 08:24:00,54.7,53.6,29.94,South,178,0.0,0.0,96,0.15,RA,,0.61,12.0,WeatherDisplay:10.37,2013-09-15 13:24:00,
2013-09-15 08:29:00,54.8,53.7,29.94,South,178,0.0,0.0,96,0.16,RA,,0.63,18.0,WeatherDisplay:10.37,2013-09-15 13:29:00,
2013-09-15 08:34:00,54.8,53.7,29.94,South,178,0.0,0.0,96,0.15,RA,,0.63,16.0,WeatherDisplay:10.37,2013-09-15 13:34:00,
2013-09-15 08:39:00,54.8,53.7,29.94,South,178,0.0,0.0,96,0.15,OVC,,0.63,14.0,WeatherDisplay:10.37,2013-09-15 13:39:00,
2013-09-15 08:44:00,55.0,53.9,29.94,South,178,0.0,0.0,96,0.14,OVC,,0.63,5.0,WeatherDisplay:10.37,2013-09-15 13:44:00,
2013-09-15 08:49:00,55.0,53.9,29.95,South,178,0.0,0.0,96,0.14,RA,,0.64,11.0,WeatherDisplay:10.37,2013-09-15 13:49:00,
2013-09-15 08:54:00,55.0,53.9,29.95,South,178,0.0,0.0,96,0.14,RA,,0.64,12.0,WeatherDisplay:10.37,2013-09-15 13:54:00,
2013-09-15 08:59:00,55.0,53.9,29.95,South,178,0.0,0.0,96,0.13,OVC,,0.64,12.0,WeatherDisplay:10.37,2013-09-15 13:59:00,
2013-09-15 09:04:00,55.0,53.9,29.96,South,178,0.0,0.0,96,0.12,RA,,0.65,12.0,WeatherDisplay:10.37,2013-09-15 14:04:00,
2013-09-15 09:09:00,55.1,54.3,29.96,South,178,0.0,0.0,97,0.09,RA,,0.66,18.0,WeatherDisplay:10.37,2013-09-15 14:09:00,
2013-09-15 09:14:00,55.1,54.0,29.95,South,178,0.0,0.0,96,0.09,RA,,0.66,35.0,WeatherDisplay:10.37,2013-09-15 14:14:00,
2013-09-15 09:19:00,55.1,54.3,29.95,South,178,0.0,0.0,97,0.09,RA,,0.67,42.0,WeatherDisplay:10.37,2013-09-15 14:19:00,
2013-09-15 09:24:00,55.3,54.5,29.95,South,178,0.0,0.0,97,0.09,RA,,0.70,16.0,WeatherDisplay:10.37,2013-09-15 14:24:00,
2013-09-15 09:29:00,55.3,54.5,29.95,South,178,0.0,0.0,97,0.08,RA,,0.71,25.0,WeatherDisplay:10.37,2013-09-15 14:29:00,
2013-09-15 09:34:00,55.3,54.5,29.96,South,178,0.0,0.0,97,0.09,RA,,0.72,56.0,WeatherDisplay:10.37,2013-09-15 14:34:00,
2013-09-15 09:39:00,55.3,54.5,29.96,South,178,0.0,0.0,97,0.10,RA,,0.73,35.0,WeatherDisplay:10.37,2013-09-15 14:39:00,
2013-09-15 09:44:00,55.3,54.5,29.96,South,178,0.0,0.0,97,0.10,-RA,,0.74,21.0,WeatherDisplay:10.37,2013-09-15 14:44:00,
2013-09-15 09:49:00,55.1,54.3,29.96,South,178,0.0,0.0,97,0.10,-RA,,0.74,32.0,WeatherDisplay:10.37,2013-09-15 14:49:00,
2013-09-15 09:54:00,55.0,54.2,29.96,South,178,0.0,0.0,97,0.12,-RA,,0.75,25.0,WeatherDisplay:10.37,2013-09-15 14:54:00,
2013-09-15 09:59:00,55.1,54.3,29.96,South,178,0.0,0.0,97,0.13,-RA,,0.77,23.0,WeatherDisplay:10.37,2013-09-15 14:59:00,
2013-09-15 10:04:00,55.1,54.3,29.97,South,178,0.0,0.0,97,0.13,-RA,,0.78,19.0,WeatherDisplay:10.37,2013-09-15 15:04:00,
2013-09-15 10:09:00,55.1,54.3,29.97,South,178,0.0,0.0,97,0.14,-RA,,0.79,23.0,WeatherDisplay:10.37,2013-09-15 15:09:00,
2013-09-15 10:14:00,55.3,54.5,29.98,South,178,0.0,0.0,97,0.14,-RA,,0.81,19.0,WeatherDisplay:10.37,2013-09-15 15:14:00,
2013-09-15 10:19:00,55.3,54.5,29.98,South,178,0.0,0.0,97,0.14,-RA,,0.82,21.0,WeatherDisplay:10.37,2013-09-15 15:19:00,
2013-09-15 10:24:00,55.3,54.5,29.98,South,178,0.0,0.0,97,0.14,RA,,0.84,25.0,WeatherDisplay:10.37,2013-09-15 15:24:00,
2013-09-15 10:29:00,55.4,54.6,29.98,South,178,0.0,0.0,97,0.14,RA,,0.85,28.0,WeatherDisplay:10.37,2013-09-15 15:29:00,
2013-09-15 10:34:00,55.4,54.6,29.98,South,178,0.0,0.0,97,0.13,RA,,0.86,33.0,WeatherDisplay:10.37,2013-09-15 15:34:00,
2013-09-15 10:39:00,55.4,54.6,29.98,South,178,0.0,0.0,97,0.13,RA,,0.86,23.0,WeatherDisplay:10.37,2013-09-15 15:39:00,
2013-09-15 10:45:00,55.4,54.6,29.99,South,178,0.0,0.0,97,0.12,RA,,0.86,19.0,WeatherDisplay:10.37,2013-09-15 15:45:00,
2013-09-15 10:50:00,55.4,54.6,29.99,South,178,0.0,0.0,97,0.12,OVC,,0.86,30.0,WeatherDisplay:10.37,2013-09-15 15:50:00,
2013-09-15 10:55:00,55.4,54.6,29.99,South,178,0.0,0.0,97,0.10,OVC,,0.86,35.0,WeatherDisplay:10.37,2013-09-15 15:55:00,
2013-09-15 11:00:00,55.6,54.8,29.99,South,178,0.0,0.0,97,0.09,OVC,,0.86,39.0,WeatherDisplay:10.37,2013-09-15 16:00:00,
2013-09-15 11:05:00,55.7,54.9,29.99,South,178,0.0,0.0,97,0.08,OVC,,0.86,33.0,WeatherDisplay:10.37,2013-09-15 16:05:00,
2013-09-15 11:10:00,55.7,54.9,29.99,South,178,0.0,0.0,97,0.07,OVC,,0.86,28.0,WeatherDisplay:10.37,2013-09-15 16:10:00,
2013-09-15 11:15:00,55.6,54.8,29.98,ENE,65,0.0,0.0,97,0.06,OVC,,0.86,69.0,WeatherDisplay:10.37,2013-09-15 16:15:00,
2013-09-15 11:20:00,55.6,54.8,29.98,ENE,66,0.0,0.0,97,0.03,OVC,,0.86,84.0,WeatherDisplay:10.37,2013-09-15 16:20:00,
2013-09-15 11:25:00,55.7,54.9,29.98,ENE,66,0.0,0.0,97,0.02,OVC,,0.86,74.0,WeatherDisplay:10.37,2013-09-15 16:25:00,
2013-09-15 11:30:00,55.9,55.1,29.99,ENE,66,0.0,0.0,97,0.01,OVC,,0.86,123.0,WeatherDisplay:10.37,2013-09-15 16:30:00,
2013-09-15 11:35:00,55.9,55.1,29.99,ENE,66,0.0,0.0,97,0.01,OVC,,0.86,130.0,WeatherDisplay:10.37,2013-09-15 16:35:00,
2013-09-15 11:40:00,56.2,55.4,29.99,ENE,66,0.0,0.0,97,0.00,OVC,,0.86,148.0,WeatherDisplay:10.37,2013-09-15 16:40:00,
2013-09-15 11:45:00,56.5,55.7,29.99,ENE,65,0.0,0.0,97,0.00,OVC,,0.86,135.0,WeatherDisplay:10.37,2013-09-15 16:45:00,
2013-09-15 11:50:00,56.7,56.1,29.99,ENE,65,0.0,0.0,98,0.00,OVC,,0.86,181.0,WeatherDisplay:10.37,2013-09-15 16:50:00,
2013-09-15 11:55:00,56.9,56.1,29.99,ENE,65,0.0,0.0,97,0.00,OVC,,0.86,158.0,WeatherDisplay:10.37,2013-09-15 16:55:00,
2013-09-15 12:00:00,56.9,56.1,29.99,ENE,65,0.0,0.0,97,0.00,OVC,,0.86,221.0,WeatherDisplay:10.37,2013-09-15 17:00:00,
2013-09-15 12:05:00,57.0,56.2,29.99,ENE,65,0.0,0.0,97,0.00,OVC,,0.86,178.0,WeatherDisplay:10.37,2013-09-15 17:05:00,
2013-09-15 12:10:00,57.2,56.4,29.99,ENE,65,0.0,0.0,97,0.00,OVC,,0.86,181.0,WeatherDisplay:10.37,2013-09-15 17:10:00,
2013-09-15 12:15:00,57.5,56.7,30.00,ENE,65,0.0,0.0,97,0.00,OVC,,0.86,186.0,WeatherDisplay:10.37,2013-09-15 17:15:00,
2013-09-15 12:20:00,57.5,56.7,30.00,ENE,65,0.0,0.0,97,0.00,OVC,,0.86,146.0,WeatherDisplay:10.37,2013-09-15 17:20:00,
2013-09-15 12:25:00,57.3,56.5,30.00,ENE,65,0.0,0.0,97,0.00,OVC,,0.86,258.0,WeatherDisplay:10.37,2013-09-15 17:25:00,
2013-09-15 12:30:00,57.5,56.7,30.00,ENE,65,0.0,0.0,97,0.00,OVC,,0.86,142.0,WeatherDisplay:10.37,2013-09-15 17:30:00,
2013-09-15 12:35:00,57.5,56.7,30.00,ENE,65,0.0,0.0,97,0.00,OVC,,0.86,111.0,WeatherDisplay:10.37,2013-09-15 17:35:00,
2013-09-15 12:40:00,57.5,56.7,30.00,ENE,65,0.0,0.0,97,0.00,OVC,,0.86,86.0,WeatherDisplay:10.37,2013-09-15 17:40:00,
2013-09-15 12:45:00,57.5,56.4,30.01,ENE,65,0.0,0.0,96,0.00,OVC,,0.86,65.0,WeatherDisplay:10.37,2013-09-15 17:45:00,
2013-09-15 12:50:00,57.5,56.7,30.01,ENE,65,0.0,0.0,97,0.00,OVC,,0.86,183.0,WeatherDisplay:10.37,2013-09-15 17:50:00,
2013-09-15 12:55:00,57.8,57.0,30.01,ENE,65,0.0,0.0,97,0.00,OVC,,0.86,229.0,WeatherDisplay:10.37,2013-09-15 17:55:00,
2013-09-15 13:00:00,57.8,56.7,30.01,ENE,65,0.0,0.0,96,0.00,OVC,,0.86,179.0,WeatherDisplay:10.37,2013-09-15 18:00:00,
2013-09-15 13:05:00,57.8,56.7,30.01,ENE,65,0.0,0.0,96,0.00,OVC,,0.86,54.0,WeatherDisplay:10.37,2013-09-15 18:05:00,
2013-09-15 13:10:00,57.6,56.5,30.01,North,10,0.0,0.0,96,0.00,OVC,,0.86,139.0,WeatherDisplay:10.37,2013-09-15 18:10:00,
2013-09-15 13:15:00,57.8,56.7,30.02,North,11,0.0,1.2,96,0.00,OVC,,0.86,141.0,WeatherDisplay:10.37,2013-09-15 18:15:00,
2013-09-15 13:20:00,57.8,56.7,30.02,North,11,0.0,0.0,96,0.00,OVC,,0.86,163.0,WeatherDisplay:10.37,2013-09-15 18:20:00,
2013-09-15 13:25:00,58.1,57.0,30.02,North,11,0.0,0.0,96,0.00,OVC,,0.86,135.0,WeatherDisplay:10.37,2013-09-15 18:25:00,
2013-09-15 13:30:00,58.1,56.7,30.02,NNE,17,0.0,1.2,95,0.00,OVC,,0.86,262.0,WeatherDisplay:10.37,2013-09-15 18:30:00,
2013-09-15 13:35:00,58.4,57.0,30.02,NNE,17,0.0,0.0,95,0.00,OVC,,0.86,234.0,WeatherDisplay:10.37,2013-09-15 18:35:00,
2013-09-15 13:40:00,58.6,56.9,30.02,NNW,329,0.0,0.0,94,0.00,OVC,,0.86,243.0,WeatherDisplay:10.37,2013-09-15 18:40:00,
2013-09-15 13:45:00,58.9,57.2,30.02,NW,323,0.0,0.0,94,0.00,OVC,,0.86,288.0,WeatherDisplay:10.37,2013-09-15 18:45:00,
2013-09-15 13:50:00,59.2,57.5,30.02,NNW,330,0.9,3.5,94,0.00,OVC,,0.86,353.0,WeatherDisplay:10.37,2013-09-15 18:50:00,
2013-09-15 13:55:00,59.5,57.5,30.02,NNW,338,0.0,0.0,93,0.00,OVC,,0.86,302.0,WeatherDisplay:10.37,2013-09-15 18:55:00,
2013-09-15 14:00:00,59.8,57.5,30.03,NE,45,0.0,0.0,92,0.00,OVC,,0.86,418.0,WeatherDisplay:10.37,2013-09-15 19:00:00,
2013-09-15 14:05:00,60.1,57.2,30.03,NNW,346,0.0,0.0,90,0.00,BKN,,0.86,390.0,WeatherDisplay:10.37,2013-09-15 19:05:00,
2013-09-15 14:10:00,60.2,56.6,30.03,ENE,74,0.0,0.0,88,0.00,BKN,,0.86,417.0,WeatherDisplay:10.37,2013-09-15 19:10:00,
2013-09-15 14:15:00,60.4,56.5,30.03,ENE,74,0.0,0.0,87,0.00,BKN,,0.86,88.0,WeatherDisplay:10.37,2013-09-15 19:15:00,
2013-09-15 14:18:00,60.5,56.3,30.03,ENE,74,0.0,0.0,86,0.00,BKN,,0.86,125.0,WeatherDisplay:10.37,2013-09-15 19:18:00,
2013-09-15 14:23:00,60.7,56.5,30.03,NNW,340,0.0,1.2,86,0.00,BKN,,0.86,100.0,WeatherDisplay:10.37,2013-09-15 19:23:00,
2013-09-15 14:28:00,60.5,56.3,30.03,North,11,0.0,0.0,86,0.00,BKN,,0.86,185.0,WeatherDisplay:10.37,2013-09-15 19:28:00,
2013-09-15 14:33:00,60.5,56.0,30.03,NNE,30,0.0,1.2,85,0.00,BKN,,0.86,241.0,WeatherDisplay:10.37,2013-09-15 19:33:00,
2013-09-15 14:38:00,61.0,56.1,30.03,ENE,61,1.5,3.5,84,0.00,BKN,,0.86,810.0,WeatherDisplay:10.37,2013-09-15 19:38:00,
2013-09-15 14:43:00,62.3,56.4,30.03,North,9,0.1,1.1,81,0.00,SCT,,0.86,125.0,WeatherDisplay:10.37,2013-09-15 19:43:00,
2013-09-15 14:48:00,62.1,55.9,30.03,NE,43,2.0,4.6,80,0.00,SCT,,0.86,158.0,WeatherDisplay:10.37,2013-09-15 19:48:00,
2013-09-15 14:53:00,62.1,55.9,30.03,NNE,28,0.1,1.2,80,0.00,SCT,,0.86,325.0,WeatherDisplay:10.37,2013-09-15 19:53:00,
2013-09-15 14:58:00,62.0,55.4,30.03,ENE,61,0.0,2.3,79,0.00,SCT,,0.86,237.0,WeatherDisplay:10.37,2013-09-15 19:58:00,
2013-09-15 15:03:00,62.3,55.4,30.04,NNE,20,0.0,3.5,78,0.00,BKN,,0.86,360.0,WeatherDisplay:10.37,2013-09-15 20:03:00,
2013-09-15 15:08:00,62.6,55.3,30.04,NNE,28,0.0,1.2,77,0.00,BKN,,0.86,190.0,WeatherDisplay:10.37,2013-09-15 20:08:00,
2013-09-15 15:13:00,62.4,55.4,30.04,NE,36,0.1,1.2,78,0.00,BKN,,0.86,116.0,WeatherDisplay:10.37,2013-09-15 20:13:00,
2013-09-15 15:18:00,62.4,55.4,30.05,NNE,12,0.3,3.5,78,0.00,BKN,,0.86,265.0,WeatherDisplay:10.37,2013-09-15 20:18:00,
2013-09-15 15:23:00,62.4,55.4,30.05,NNE,28,0.1,1.2,78,0.00,OVC,,0.86,79.0,WeatherDisplay:10.37,2013-09-15 20:23:00,
2013-09-15 15:28:00,62.6,55.6,30.05,NNE,26,2.2,6.9,78,0.00,OVC,,0.86,70.0,WeatherDisplay:10.37,2013-09-15 20:28:00,
2013-09-15 15:33:00,62.1,54.8,30.06,NNW,339,1.2,3.5,77,0.00,OVC,,0.86,139.0,WeatherDisplay:10.37,2013-09-15 20:33:00,
2013-09-15 15:38:00,62.0,55.1,30.06,NNE,19,0.4,2.3,78,0.00,OVC,,0.86,229.0,WeatherDisplay:10.37,2013-09-15 20:38:00,
2013-09-15 15:43:00,62.1,55.2,30.06,ENE,77,0.1,1.2,78,0.00,OVC,,0.86,320.0,WeatherDisplay:10.37,2013-09-15 20:43:00,
2013-09-15 15:48:00,62.6,55.3,30.06,NE,42,0.7,3.5,77,0.00,OVC,,0.86,339.0,WeatherDisplay:10.37,2013-09-15 20:48:00,
2013-09-15 15:53:00,64.3,55.8,30.06,NE,47,0.6,2.3,74,0.00,OVC,,0.86,580.0,WeatherDisplay:10.37,2013-09-15 20:53:00,
2013-09-15 15:58:00,65.3,55.7,30.06,North,355,0.0,1.2,71,0.00,OVC,,0.86,585.0,WeatherDisplay:10.37,2013-09-15 20:58:00,
2013-09-15 16:03:00,65.5,53.8,30.07,NE,41,1.4,4.6,66,0.00,OVC,,0.86,547.0,WeatherDisplay:10.37,2013-09-15 21:03:00,
2013-09-15 16:08:00,64.8,53.6,30.07,NNE,24,1.5,5.8,67,0.00,OVC,,0.86,582.0,WeatherDisplay:10.37,2013-09-15 21:08:00,
2013-09-15 16:13:00,64.7,53.5,30.07,North,351,0.3,3.5,67,0.00,OVC,,0.86,253.0,WeatherDisplay:10.37,2013-09-15 21:13:00,
2013-09-15 16:18:00,64.5,53.7,30.07,NNE,28,1.3,5.8,68,0.00,OVC,,0.86,190.0,WeatherDisplay:10.37,2013-09-15 21:18:00,
2013-09-15 16:23:00,64.3,53.9,30.07,NNE,20,0.0,1.2,69,0.00,BKN,,0.86,163.0,WeatherDisplay:10.37,2013-09-15 21:23:00,
2013-09-15 16:28:00,64.3,54.3,30.07,NNE,20,0.0,1.2,70,0.00,BKN,,0.86,123.0,WeatherDisplay:10.37,2013-09-15 21:28:00,
2013-09-15 16:33:00,64.2,54.6,30.08,NNE,20,0.0,0.0,71,0.00,BKN,,0.86,90.0,WeatherDisplay:10.37,2013-09-15 21:33:00,
2013-09-15 16:38:00,64.2,55.4,30.08,NNE,20,0.0,0.0,73,0.00,BKN,,0.86,116.0,WeatherDisplay:10.37,2013-09-15 21:38:00,
2013-09-15 16:43:00,64.0,55.2,30.08,NNE,20,0.0,0.0,73,0.00,SCT,,0.86,153.0,WeatherDisplay:10.37,2013-09-15 21:43:00,
2013-09-15 16:48:00,64.0,55.2,30.09,North,360,1.5,4.4,73,0.00,SCT,,0.86,223.0,WeatherDisplay:10.37,2013-09-15 21:48:00,
2013-09-15 16:53:00,64.0,55.2,30.09,NNE,13,0.0,0.0,73,0.00,SCT,,0.86,160.0,WeatherDisplay:10.37,2013-09-15 21:53:00,
2013-09-15 16:58:00,63.9,55.1,30.09,NE,50,0.0,0.0,73,0.00,SCT,,0.86,121.0,WeatherDisplay:10.37,2013-09-15 21:58:00,
2013-09-15 17:03:00,63.9,55.1,30.09,ENE,78,0.0,0.0,73,0.00,SCT,,0.86,102.0,WeatherDisplay:10.37,2013-09-15 22:03:00,
2013-09-15 17:08:00,63.9,55.1,30.09,ENE,76,0.0,0.0,73,0.00,SCT,,0.86,116.0,WeatherDisplay:10.37,2013-09-15 22:08:00,
2013-09-15 17:13:00,64.0,55.2,30.09,NNE,15,0.0,0.0,73,0.00,SCT,,0.86,253.0,WeatherDisplay:10.37,2013-09-15 22:13:00,
2013-09-15 17:18:00,64.3,55.5,30.09,NNE,15,0.0,0.0,73,0.00,SCT,,0.86,288.0,WeatherDisplay:10.37,2013-09-15 22:18:00,
2013-09-15 17:23:00,64.5,55.3,30.09,NNW,329,0.0,0.0,72,0.00,BKN,,0.86,253.0,WeatherDisplay:10.37,2013-09-15 22:23:00,
2013-09-15 17:28:00,64.5,54.9,30.09,WNW,288,0.0,0.0,71,0.00,BKN,,0.86,60.0,WeatherDisplay:10.37,2013-09-15 22:28:00,
2013-09-15 17:33:00,64.3,55.1,30.10,NE,40,0.0,1.2,72,0.00,BKN,,0.86,35.0,WeatherDisplay:10.37,2013-09-15 22:33:00,
2013-09-15 17:38:00,64.2,55.0,30.10,NE,40,0.1,1.2,72,0.00,BKN,,0.86,35.0,WeatherDisplay:10.37,2013-09-15 22:38:00,
2013-09-15 17:43:00,64.0,54.8,30.10,NE,36,0.0,0.0,72,0.00,OVC,,0.86,40.0,WeatherDisplay:10.37,2013-09-15 22:43:00,
2013-09-15 17:48:00,63.9,54.7,30.10,NNE,18,0.0,0.0,72,0.00,OVC,,0.86,49.0,WeatherDisplay:10.37,2013-09-15 22:48:00,
2013-09-15 17:53:00,63.9,54.7,30.10,NE,51,0.1,1.2,72,0.00,OVC,,0.86,116.0,WeatherDisplay:10.37,2013-09-15 22:53:00,
2013-09-15 17:58:00,63.9,54.3,30.10,North,5,0.0,0.0,71,0.00,OVC,,0.86,100.0,WeatherDisplay:10.37,2013-09-15 22:58:00,
2013-09-15 18:03:00,64.0,54.4,30.11,North,5,0.0,0.0,71,0.00,OVC,,0.86,79.0,WeatherDisplay:10.37,2013-09-15 23:03:00,
2013-09-15 18:08:00,64.2,54.6,30.11,North,5,0.0,0.0,71,0.00,OVC,,0.86,58.0,WeatherDisplay:10.37,2013-09-15 23:08:00,
2013-09-15 18:13:00,64.2,55.0,30.11,North,5,0.0,0.0,72,0.00,OVC,,0.86,46.0,WeatherDisplay:10.37,2013-09-15 23:13:00,
2013-09-15 18:18:00,64.2,55.4,30.11,North,5,0.0,0.0,73,0.00,OVC,,0.86,44.0,WeatherDisplay:10.37,2013-09-15 23:18:00,
2013-09-15 18:23:00,64.0,55.2,30.11,North,360,0.0,0.0,73,0.00,OVC,,0.86,39.0,WeatherDisplay:10.37,2013-09-15 23:23:00,
2013-09-15 18:28:00,63.9,55.4,30.11,North,360,0.0,0.0,74,0.00,OVC,,0.86,35.0,WeatherDisplay:10.37,2013-09-15 23:28:00,
2013-09-15 18:33:00,63.7,55.3,30.12,North,360,0.0,0.0,74,0.00,OVC,,0.86,33.0,WeatherDisplay:10.37,2013-09-15 23:33:00,
2013-09-15 18:38:00,63.7,55.6,30.12,North,360,0.0,0.0,75,0.00,OVC,,0.86,32.0,WeatherDisplay:10.37,2013-09-15 23:38:00,
2013-09-15 18:43:00,63.5,55.4,30.12,North,360,0.0,0.0,75,0.00,OVC,,0.86,21.0,WeatherDisplay:10.37,2013-09-15 23:43:00,
2013-09-15 18:48:00,63.5,55.8,30.12,North,360,0.0,0.0,76,0.00,OVC,,0.86,14.0,WeatherDisplay:10.37,2013-09-15 23:48:00,
2013-09-15 18:53:00,63.4,55.7,30.12,North,360,0.0,0.0,76,0.00,OVC,,0.86,11.0,WeatherDisplay:10.37,2013-09-15 23:53:00,
2013-09-15 18:58:00,63.1,55.8,30.12,North,360,0.0,0.0,77,0.00,OVC,,0.86,5.0,WeatherDisplay:10.37,2013-09-15 23:58:00,
2013-09-15 19:03:00,62.7,56.1,30.13,North,360,0.0,0.0,79,0.00,OVC,,0.86,0.0,WeatherDisplay:10.37,2013-09-16 00:03:00,
2013-09-15 19:08:00,62.6,56.0,30.13,North,360,0.0,0.0,79,0.00,OVC,,0.86,0.0,WeatherDisplay:10.37,2013-09-16 00:08:00,
2013-09-15 19:13:00,62.3,56.0,30.13,North,360,0.0,0.0,80,0.00,OVC,,0.86,0.0,WeatherDisplay:10.37,2013-09-16 00:13:00,
2013-09-15 19:18:00,62.1,55.9,30.14,North,360,0.0,0.0,80,0.00,OVC,,0.86,0.0,WeatherDisplay:10.37,2013-09-16 00:18:00,
2013-09-15 19:23:00,62.1,55.9,30.14,North,360,0.0,0.0,80,0.00,OVC,,0.86,0.0,WeatherDisplay:10.37,2013-09-16 00:23:00,
2013-09-15 19:28:00,61.8,55.9,30.14,North,360,0.0,0.0,81,0.00,OVC,,0.86,0.0,WeatherDisplay:10.37,2013-09-16 00:28:00,
2013-09-15 19:33:00,61.6,55.7,30.14,North,360,0.0,0.0,81,0.00,OVC,,0.86,0.0,WeatherDisplay:10.37,2013-09-16 00:33:00,
2013-09-15 19:38:00,61.3,55.4,30.14,North,360,0.0,0.0,81,0.00,OVC,,0.86,0.0,WeatherDisplay:10.37,2013-09-16 00:38:00,
2013-09-15 19:43:00,61.3,55.8,30.14,NNW,332,0.0,2.3,82,0.00,OVC,,0.86,0.0,WeatherDisplay:10.37,2013-09-16 00:43:00,
2013-09-15 19:48:00,61.2,55.7,30.15,North,360,1.7,4.4,82,0.00,OVC,,0.86,0.0,WeatherDisplay:10.37,2013-09-16 00:48:00,
2013-09-15 19:53:00,61.2,55.3,30.15,NNE,22,0.3,3.5,81,0.00,OVC,,0.86,0.0,WeatherDisplay:10.37,2013-09-16 00:53:00,
2013-09-15 19:58:00,61.2,55.0,30.15,NNW,345,0.0,1.1,80,0.00,OVC,,0.86,0.0,WeatherDisplay:10.37,2013-09-16 00:58:00,
2013-09-15 20:03:00,60.9,54.3,30.16,NNE,13,0.5,2.3,79,0.00,OVC,,0.86,0.0,WeatherDisplay:10.37,2013-09-16 01:03:00,
2013-09-15 20:08:00,60.7,54.1,30.16,NNE,12,0.1,3.5,79,0.00,OVC,,0.86,0.0,WeatherDisplay:10.37,2013-09-16 01:08:00,
2013-09-15 20:13:00,60.4,53.9,30.16,North,360,1.0,5.8,79,0.00,OVC,,0.86,0.0,WeatherDisplay:10.37,2013-09-16 01:13:00,
2013-09-15 20:18:00,60.2,54.0,30.17,NNE,22,0.0,0.0,80,0.00,OVC,,0.86,0.0,WeatherDisplay:10.37,2013-09-16 01:18:00,
2013-09-15 20:23:00,59.9,54.1,30.17,North,11,0.0,3.5,81,0.00,OVC,,0.86,0.0,WeatherDisplay:10.37,2013-09-16 01:23:00,
2013-09-15 20:28:00,59.8,54.3,30.17,NNW,329,0.0,0.0,82,0.00,OVC,,0.86,0.0,WeatherDisplay:10.37,2013-09-16 01:28:00,
2013-09-15 20:33:00,59.6,54.1,30.17,NNW,348,0.0,1.1,82,0.00,OVC,,0.86,0.0,WeatherDisplay:10.37,2013-09-16 01:33:00,
2013-09-15 20:38:00,59.6,54.1,30.17,NNE,12,0.0,1.1,82,0.00,OVC,,0.86,0.0,WeatherDisplay:10.37,2013-09-16 01:38:00,
2013-09-15 20:43:00,59.6,53.8,30.17,NW,317,0.1,1.2,81,0.00,OVC,,0.86,0.0,WeatherDisplay:10.37,2013-09-16 01:43:00,
2013-09-15 20:48:00,59.5,53.7,30.18,NNW,347,0.1,1.2,81,0.00,OVC,,0.86,0.0,WeatherDisplay:10.37,2013-09-16 01:48:00,
2013-09-15 20:53:00,59.5,53.7,30.18,North,11,0.0,1.1,81,0.00,OVC,,0.86,0.0,WeatherDisplay:10.37,2013-09-16 01:53:00,
2013-09-15 20:58:00,59.3,53.5,30.18,NNW,342,0.1,1.2,81,0.00,OVC,,0.86,0.0,WeatherDisplay:10.37,2013-09-16 01:58:00,
2013-09-15 21:03:00,59.3,53.5,30.19,North,360,0.0,0.0,81,0.00,OVC,,0.86,0.0,WeatherDisplay:10.37,2013-09-16 02:03:00,
2013-09-15 21:08:00,59.2,53.4,30.19,ENE,63,0.6,7.7,81,0.00,OVC,,0.86,0.0,WeatherDisplay:10.37,2013-09-16 02:08:00,
2013-09-15 21:13:00,59.2,53.4,30.19,North,351,1.3,4.6,81,0.00,OVC,,0.86,0.0,WeatherDisplay:10.37,2013-09-16 02:13:00,
2013-09-15 21:18:00,59.2,53.4,30.20,North,355,0.2,3.5,81,0.00,OVC,,0.86,0.0,WeatherDisplay:10.37,2013-09-16 02:18:00,
2013-09-15 21:23:00,59.2,53.4,30.20,North,360,0.0,2.3,81,0.00,SCT,,0.86,0.0,WeatherDisplay:10.37,2013-09-16 02:23:00,
2013-09-15 21:28:00,59.2,53.4,30.20,North,360,0.0,1.2,81,0.00,SCT,,0.86,0.0,WeatherDisplay:10.37,2013-09-16 02:28:00,
2013-09-15 21:33:00,59.2,53.4,30.20,North,5,0.1,1.2,81,0.00,SCT,,0.86,0.0,WeatherDisplay:10.37,2013-09-16 02:33:00,
2013-09-15 21:38:00,59.2,53.4,30.20,NNW,346,0.0,0.0,81,0.00,SCT,,0.86,0.0,WeatherDisplay:10.37,2013-09-16 02:38:00,
2013-09-15 21:43:00,59.0,53.2,30.20,North,355,0.4,4.6,81,0.00,BKN,,0.86,0.0,WeatherDisplay:10.37,2013-09-16 02:43:00,
2013-09-15 21:48:00,59.0,52.8,30.21,North,350,0.1,1.2,80,0.00,BKN,,0.86,0.0,WeatherDisplay:10.37,2013-09-16 02:48:00,
2013-09-15 21:53:00,58.9,52.4,30.21,NNE,13,0.1,3.5,79,0.00,BKN,,0.86,0.0,WeatherDisplay:10.37,2013-09-16 02:53:00,
2013-09-15 21:58:00,58.7,52.2,30.21,NNE,17,0.8,6.9,79,0.00,BKN,,0.86,0.0,WeatherDisplay:10.37,2013-09-16 02:58:00,
2013-09-15 22:03:00,58.4,51.9,30.22,North,355,1.1,3.5,79,0.00,BKN,,0.86,0.0,WeatherDisplay:10.37,2013-09-16 03:03:00,
2013-09-15 22:08:00,58.3,51.8,30.22,ENE,59,0.0,0.0,79,0.00,BKN,,0.86,0.0,WeatherDisplay:10.37,2013-09-16 03:08:00,
2013-09-15 22:13:00,58.1,51.6,30.22,NNE,17,0.0,0.0,79,0.00,BKN,,0.86,0.0,WeatherDisplay:10.37,2013-09-16 03:13:00,
2013-09-15 22:19:00,57.8,51.3,30.22,NNE,28,0.3,2.2,79,0.00,BKN,,0.86,0.0,WeatherDisplay:10.37,2013-09-16 03:19:00,
2013-09-15 22:24:00,57.6,50.8,30.22,NE,38,0.2,1.2,78,0.00,BKN,,0.86,0.0,WeatherDisplay:10.37,2013-09-16 03:24:00,
2013-09-15 22:29:00,57.5,50.7,30.22,NE,40,0.0,0.0,78,0.00,BKN,,0.86,0.0,WeatherDisplay:10.37,2013-09-16 03:29:00,
2013-09-15 22:34:00,57.3,50.8,30.23,NE,40,0.0,0.0,79,0.00,BKN,,0.86,0.0,WeatherDisplay:10.37,2013-09-16 03:34:00,
2013-09-15 22:39:00,57.3,50.8,30.23,NE,40,0.0,0.0,79,0.00,BKN,,0.86,0.0,WeatherDisplay:10.37,2013-09-16 03:39:00,
2013-09-15 22:44:00,57.2,50.7,30.23,NE,40,0.0,0.0,79,0.00,SCT,,0.86,0.0,WeatherDisplay:10.37,2013-09-16 03:44:00,
2013-09-15 22:49:00,57.2,51.1,30.23,NE,40,0.0,0.0,80,0.00,SCT,,0.86,0.0,WeatherDisplay:10.37,2013-09-16 03:49:00,
2013-09-15 22:54:00,56.9,50.8,30.23,North,9,0.0,1.2,80,0.00,SCT,,0.86,0.0,WeatherDisplay:10.37,2013-09-16 03:54:00,
2013-09-15 22:59:00,56.7,50.6,30.23,North,9,0.0,0.0,80,0.00,SCT,,0.86,0.0,WeatherDisplay:10.37,2013-09-16 03:59:00,
2013-09-15 23:01:00,56.7,50.6,30.24,North,9,0.0,0.0,80,0.00,SCT,,0.86,0.0,WeatherDisplay:10.37,2013-09-16 04:01:00,
2013-09-15 23:02:00,56.7,50.9,30.24,North,9,0.0,0.0,81,0.00,OVC,,0.86,0.0,WeatherDisplay:10.37,2013-09-16 04:02:00,
2013-09-15 23:07:00,56.6,50.8,30.24,North,9,0.0,0.0,81,0.00,OVC,,0.86,0.0,WeatherDisplay:10.37,2013-09-16 04:07:00,
2013-09-15 23:12:00,56.5,50.7,30.24,ENE,66,0.0,1.1,81,0.00,OVC,,0.86,0.0,WeatherDisplay:10.37,2013-09-16 04:12:00,
2013-09-15 23:17:00,56.3,50.2,30.24,NNE,15,0.0,0.0,80,0.00,OVC,,0.86,0.0,WeatherDisplay:10.37,2013-09-16 04:17:00,
2013-09-15 23:22:00,56.3,50.2,30.24,East,92,0.6,4.6,80,0.00,OVC,,0.86,0.0,WeatherDisplay:10.37,2013-09-16 04:22:00,
2013-09-15 23:27:00,56.2,50.1,30.24,NE,45,0.0,1.0,80,0.00,OVC,,0.86,0.0,WeatherDisplay:10.37,2013-09-16 04:27:00,
2013-09-15 23:32:00,56.0,50.3,30.25,NNE,19,0.1,1.2,81,0.00,OVC,,0.86,0.0,WeatherDisplay:10.37,2013-09-16 04:32:00,
2013-09-15 23:37:00,56.0,49.9,30.25,North,360,0.0,1.0,80,0.00,OVC,,0.86,0.0,WeatherDisplay:10.37,2013-09-16 04:37:00,
2013-09-15 23:42:00,55.9,49.8,30.25,NNE,29,0.1,2.3,80,0.00,OVC,,0.86,0.0,WeatherDisplay:10.37,2013-09-16 04:42:00,
2013-09-15 23:47:00,55.8,49.7,30.25,NE,35,0.0,5.0,80,0.00,OVC,,0.86,0.0,WeatherDisplay:10.37,2013-09-16 04:47:00,
2013-09-15 23:52:00,55.7,49.6,30.25,NNW,340,0.0,1.2,80,0.00,OVC,,0.86,0.0,WeatherDisplay:10.37,2013-09-16 04:52:00,
2013-09-15 23:57:00,55.4,49.3,30.25,NNE,29,0.0,1.0,80,0.00,OVC,,0.86,0.0,WeatherDisplay:10.37,2013-09-16 04:57:00,